Time,TemperatureF,DewpointF,PressureIn,WindDirection,WindDirectionDegrees,WindSpeedMPH,WindSpeedGustMPH,Humidity,HourlyPrecipIn,Conditions,Clouds,dailyrainin,SoftwareType,DateUTC
2013-06-05 00:00:00,55.8,50.7,30.06,NW,316,3.0,3.0,83,0.00,,,0.00,Wunderground v.1.15,2013-06-05 07:00:00,
2013-06-05 00:05:00,55.7,50.6,30.06,NNE,18,3.0,6.0,83,0.00,,,0.00,Wunderground v.1.15,2013-06-05 07:05:00,
2013-06-05 00:10:00,55.5,50.7,30.06,North,355,3.0,5.0,84,0.00,,,0.00,Wunderground v.1.15,2013-06-05 07:10:00,
2013-06-05 00:15:00,55.3,50.9,30.06,NNW,337,3.0,5.0,85,0.00,,,0.00,Wunderground v.1.15,2013-06-05 07:15:00,
2013-06-05 00:20:00,55.1,51.0,30.06,NNE,19,2.0,2.0,86,0.00,,,0.00,Wunderground v.1.15,2013-06-05 07:20:00,
2013-06-05 00:25:00,54.9,50.8,30.06,NW,312,2.0,3.0,86,0.00,,,0.00,Wunderground v.1.15,2013-06-05 07:25:00,
2013-06-05 00:30:00,54.7,50.9,30.06,NNW,345,2.0,2.0,87,0.00,,,0.00,Wunderground v.1.15,2013-06-05 07:30:00,
2013-06-05 00:40:00,54.5,50.7,30.06,North,9,2.0,2.0,87,0.00,,,0.00,Wunderground v.1.15,2013-06-05 07:40:00,
2013-06-05 00:45:00,54.4,50.6,30.06,North,355,2.0,2.0,87,0.00,,,0.00,Wunderground v.1.15,2013-06-05 07:45:00,
2013-06-05 00:50:00,54.2,50.4,30.06,NNE,27,3.0,3.0,87,0.00,,,0.00,Wunderground v.1.15,2013-06-05 07:50:00,
2013-06-05 00:55:00,54.1,50.3,30.06,NNW,340,3.0,3.0,87,0.00,,,0.00,Wunderground v.1.15,2013-06-05 07:55:00,
2013-06-05 01:00:00,54.0,50.5,30.06,NNE,14,3.0,5.0,88,0.00,,,0.00,Wunderground v.1.15,2013-06-05 08:00:00,
2013-06-05 01:05:00,54.0,50.5,30.06,NE,38,2.0,5.0,88,0.00,,,0.00,Wunderground v.1.15,2013-06-05 08:05:00,
2013-06-05 01:10:00,53.8,50.3,30.06,NNW,331,2.0,3.0,88,0.00,,,0.00,Wunderground v.1.15,2013-06-05 08:10:00,
2013-06-05 01:15:00,53.7,50.5,30.06,North,355,2.0,4.0,89,0.00,,,0.00,Wunderground v.1.15,2013-06-05 08:15:00,
2013-06-05 01:20:00,53.7,50.5,30.06,NNE,28,3.0,6.0,89,0.00,,,0.00,Wunderground v.1.15,2013-06-05 08:20:00,
2013-06-05 01:25:00,53.8,50.6,30.06,NE,55,4.0,6.0,89,0.00,,,0.00,Wunderground v.1.15,2013-06-05 08:25:00,
2013-06-05 01:30:00,53.8,50.3,30.06,NE,38,4.0,4.0,88,0.00,,,0.00,Wunderground v.1.15,2013-06-05 08:30:00,
2013-06-05 01:35:00,53.7,50.2,30.07,North,355,3.0,4.0,88,0.00,,,0.00,Wunderground v.1.15,2013-06-05 08:35:00,
2013-06-05 01:40:00,53.7,49.9,30.06,North,355,3.0,5.0,87,0.00,,,0.00,Wunderground v.1.15,2013-06-05 08:40:00,
2013-06-05 01:45:00,53.7,49.6,30.06,NNW,346,3.0,5.0,86,0.00,,,0.00,Wunderground v.1.15,2013-06-05 08:45:00,
2013-06-05 01:50:00,53.7,49.3,30.06,North,10,4.0,8.0,85,0.00,,,0.00,Wunderground v.1.15,2013-06-05 08:50:00,
2013-06-05 01:55:00,53.7,49.3,30.06,North,9,4.0,8.0,85,0.00,,,0.00,Wunderground v.1.15,2013-06-05 08:55:00,
2013-06-05 02:00:00,53.6,49.5,30.06,NNE,30,4.0,4.0,86,0.00,,,0.00,Wunderground v.1.15,2013-06-05 09:00:00,
2013-06-05 02:05:00,53.3,49.5,30.06,NE,41,3.0,4.0,87,0.00,,,0.00,Wunderground v.1.15,2013-06-05 09:05:00,
2013-06-05 02:10:00,53.0,49.5,30.06,NNE,17,2.0,3.0,88,0.00,,,0.00,Wunderground v.1.15,2013-06-05 09:10:00,
2013-06-05 02:15:00,52.9,49.7,30.06,NNE,24,2.0,3.0,89,0.00,,,0.00,Wunderground v.1.15,2013-06-05 09:15:00,
2013-06-05 02:25:00,52.8,49.6,30.06,NNE,23,2.0,5.0,89,0.00,,,0.00,Wunderground v.1.15,2013-06-05 09:25:00,
2013-06-05 02:30:00,52.8,49.9,30.06,North,355,2.0,2.0,90,0.00,,,0.00,Wunderground v.1.15,2013-06-05 09:30:00,
2013-06-05 02:35:00,52.7,49.8,30.06,North,5,2.0,6.0,90,0.00,,,0.00,Wunderground v.1.15,2013-06-05 09:35:00,
2013-06-05 02:40:00,52.6,49.8,30.06,NE,55,3.0,3.0,90,0.00,,,0.00,Wunderground v.1.15,2013-06-05 09:40:00,
2013-06-05 02:45:00,52.5,49.7,30.06,NNE,17,3.0,3.0,90,0.00,,,0.00,Wunderground v.1.15,2013-06-05 09:45:00,
2013-06-05 02:55:00,52.4,49.6,30.05,North,5,2.0,4.0,90,0.00,,,0.00,Wunderground v.1.15,2013-06-05 09:55:00,
2013-06-05 03:00:00,52.3,49.5,30.06,NNE,12,2.0,2.0,90,0.00,,,0.00,Wunderground v.1.15,2013-06-05 10:00:00,
2013-06-05 03:05:00,52.2,49.4,30.05,NNE,16,1.0,2.0,90,0.00,,,0.00,Wunderground v.1.15,2013-06-05 10:05:00,
2013-06-05 03:10:00,52.1,49.3,30.06,North,9,1.0,1.0,90,0.00,,,0.00,Wunderground v.1.15,2013-06-05 10:10:00,
2013-06-05 03:15:00,52.0,49.2,30.06,NE,49,0.0,1.0,90,0.00,,,0.00,Wunderground v.1.15,2013-06-05 10:15:00,
2013-06-05 03:20:00,52.0,49.2,30.05,NNE,28,0.0,0.0,90,0.00,,,0.00,Wunderground v.1.15,2013-06-05 10:20:00,
2013-06-05 03:25:00,51.9,49.1,30.06,NNW,336,1.0,1.0,90,0.00,,,0.00,Wunderground v.1.15,2013-06-05 10:25:00,
2013-06-05 03:30:00,52.0,49.5,30.06,NW,315,2.0,2.0,91,0.00,,,0.00,Wunderground v.1.15,2013-06-05 10:30:00,
2013-06-05 03:35:00,52.1,49.6,30.06,NNW,327,3.0,3.0,91,0.00,,,0.00,Wunderground v.1.15,2013-06-05 10:35:00,
2013-06-05 03:40:00,52.1,49.6,30.07,NNW,333,3.0,5.0,91,0.00,,,0.00,Wunderground v.1.15,2013-06-05 10:40:00,
2013-06-05 03:45:00,52.0,49.5,30.07,NW,311,3.0,5.0,91,0.00,,,0.00,Wunderground v.1.15,2013-06-05 10:45:00,
2013-06-05 03:50:00,51.9,49.4,30.07,NW,319,3.0,3.0,91,0.00,,,0.00,Wunderground v.1.15,2013-06-05 10:50:00,
2013-06-05 03:55:00,51.8,49.5,30.07,North,355,4.0,4.0,92,0.00,,,0.00,Wunderground v.1.15,2013-06-05 10:55:00,
2013-06-05 04:00:00,51.7,49.5,30.07,NNW,344,3.0,3.0,92,0.00,,,0.00,Wunderground v.1.15,2013-06-05 11:00:00,
2013-06-05 04:05:00,51.6,49.4,30.07,NNW,345,3.0,3.0,92,0.00,,,0.00,Wunderground v.1.15,2013-06-05 11:05:00,
2013-06-05 04:15:00,51.3,49.1,30.07,NNE,18,2.0,2.0,92,0.00,,,0.00,Wunderground v.1.15,2013-06-05 11:15:00,
2013-06-05 04:20:00,51.2,49.2,30.07,NNW,341,2.0,5.0,93,0.00,,,0.00,Wunderground v.1.15,2013-06-05 11:20:00,
2013-06-05 04:25:00,51.2,49.2,30.06,North,355,3.0,5.0,93,0.00,,,0.00,Wunderground v.1.15,2013-06-05 11:25:00,
2013-06-05 04:30:00,51.2,49.2,30.06,North,360,3.0,3.0,93,0.00,,,0.00,Wunderground v.1.15,2013-06-05 11:30:00,
2013-06-05 04:35:00,51.1,49.1,30.06,NNE,28,2.0,3.0,93,0.00,,,0.00,Wunderground v.1.15,2013-06-05 11:35:00,
2013-06-05 04:40:00,51.0,49.0,30.07,North,355,1.0,1.0,93,0.00,,,0.00,Wunderground v.1.15,2013-06-05 11:40:00,
2013-06-05 04:45:00,51.0,49.0,30.07,NW,317,1.0,1.0,93,0.00,,,0.00,Wunderground v.1.15,2013-06-05 11:45:00,
2013-06-05 04:50:00,50.9,48.9,30.07,NNE,28,1.0,2.0,93,0.00,,,0.00,Wunderground v.1.15,2013-06-05 11:50:00,
2013-06-05 04:55:00,50.9,48.9,30.06,NNE,17,1.0,2.0,93,0.00,,,0.00,Wunderground v.1.15,2013-06-05 11:55:00,
2013-06-05 05:00:00,50.8,49.1,30.07,North,351,1.0,1.0,94,0.00,,,0.00,Wunderground v.1.15,2013-06-05 12:00:00,
2013-06-05 05:05:00,50.7,49.0,30.07,NNE,23,1.0,1.0,94,0.00,,,0.00,Wunderground v.1.15,2013-06-05 12:05:00,
2013-06-05 05:10:00,50.7,49.0,30.07,NNE,13,1.0,1.0,94,0.00,,,0.00,Wunderground v.1.15,2013-06-05 12:10:00,
2013-06-05 05:15:00,50.7,49.0,30.07,NNE,15,2.0,3.0,94,0.00,,,0.00,Wunderground v.1.15,2013-06-05 12:15:00,
2013-06-05 05:20:00,50.7,49.0,30.07,NNE,29,2.0,2.0,94,0.00,,,0.00,Wunderground v.1.15,2013-06-05 12:20:00,
2013-06-05 05:25:00,50.6,48.9,30.07,NNE,19,2.0,3.0,94,0.00,,,0.00,Wunderground v.1.15,2013-06-05 12:25:00,
2013-06-05 05:30:00,50.6,48.9,30.07,NNE,27,2.0,2.0,94,0.00,,,0.00,Wunderground v.1.15,2013-06-05 12:30:00,
2013-06-05 05:35:00,50.6,49.2,30.07,NNE,14,2.0,4.0,95,0.00,,,0.00,Wunderground v.1.15,2013-06-05 12:35:00,
2013-06-05 05:40:00,50.7,49.3,30.07,NNW,333,3.0,3.0,95,0.00,,,0.00,Wunderground v.1.15,2013-06-05 12:40:00,
2013-06-05 05:45:00,50.7,49.3,30.08,WNW,296,3.0,4.0,95,0.00,,,0.00,Wunderground v.1.15,2013-06-05 12:45:00,
2013-06-05 05:50:00,50.9,49.5,30.08,WNW,288,5.0,6.0,95,0.00,,,0.00,Wunderground v.1.15,2013-06-05 12:50:00,
2013-06-05 06:00:00,51.3,49.9,30.08,WNW,296,5.0,5.0,95,0.00,,,0.00,Wunderground v.1.15,2013-06-05 13:00:00,
2013-06-05 06:10:00,52.0,50.6,30.09,WNW,294,5.0,5.0,95,0.00,,,0.00,Wunderground v.1.15,2013-06-05 13:10:00,
2013-06-05 06:15:00,52.2,50.8,30.09,NNW,327,6.0,7.0,95,0.00,,,0.00,Wunderground v.1.15,2013-06-05 13:15:00,
2013-06-05 06:20:00,52.3,50.9,30.09,West,273,6.0,6.0,95,0.00,,,0.00,Wunderground v.1.15,2013-06-05 13:20:00,
2013-06-05 06:25:00,52.4,51.0,30.09,WNW,303,6.0,6.0,95,0.00,,,0.00,Wunderground v.1.15,2013-06-05 13:25:00,
2013-06-05 06:30:00,52.6,51.2,30.09,NNW,327,6.0,6.0,95,0.00,,,0.00,Wunderground v.1.15,2013-06-05 13:30:00,
2013-06-05 06:40:00,52.7,51.3,30.09,WNW,282,4.0,4.0,95,0.00,,,0.00,Wunderground v.1.15,2013-06-05 13:40:00,
2013-06-05 06:45:00,53.0,51.6,30.09,NW,309,5.0,5.0,95,0.00,,,0.00,Wunderground v.1.15,2013-06-05 13:45:00,
2013-06-05 06:50:00,53.0,51.3,30.09,NW,323,5.0,10.0,94,0.00,,,0.00,Wunderground v.1.15,2013-06-05 13:50:00,
2013-06-05 06:55:00,53.2,51.5,30.09,North,355,5.0,10.0,94,0.00,,,0.00,Wunderground v.1.15,2013-06-05 13:55:00,
2013-06-05 07:00:00,53.4,51.7,30.09,WNW,289,6.0,6.0,94,0.00,,,0.00,Wunderground v.1.15,2013-06-05 14:00:00,
2013-06-05 07:10:00,53.8,51.8,30.10,NW,312,6.0,6.0,93,0.00,,,0.00,Wunderground v.1.15,2013-06-05 14:10:00,
2013-06-05 07:15:00,54.0,52.0,30.10,WNW,290,5.0,6.0,93,0.00,,,0.00,Wunderground v.1.15,2013-06-05 14:15:00,
2013-06-05 07:20:00,54.1,52.1,30.10,North,351,4.0,4.0,93,0.00,,,0.00,Wunderground v.1.15,2013-06-05 14:20:00,
2013-06-05 07:25:00,54.1,52.1,30.10,WNW,290,4.0,5.0,93,0.00,,,0.00,Wunderground v.1.15,2013-06-05 14:25:00,
2013-06-05 07:35:00,54.2,52.2,30.10,NW,325,4.0,5.0,93,0.00,,,0.00,Wunderground v.1.15,2013-06-05 14:35:00,
2013-06-05 07:40:00,54.1,52.1,30.10,WNW,288,4.0,6.0,93,0.00,,,0.00,Wunderground v.1.15,2013-06-05 14:40:00,
2013-06-05 07:45:00,54.2,52.2,30.10,NNW,329,3.0,6.0,93,0.00,,,0.00,Wunderground v.1.15,2013-06-05 14:45:00,
2013-06-05 07:50:00,54.3,52.3,30.10,NW,319,4.0,4.0,93,0.00,,,0.00,Wunderground v.1.15,2013-06-05 14:50:00,
2013-06-05 07:55:00,54.3,52.3,30.10,NNE,16,4.0,4.0,93,0.00,,,0.00,Wunderground v.1.15,2013-06-05 14:55:00,
2013-06-05 08:00:00,54.1,52.1,30.10,North,355,3.0,3.0,93,0.00,,,0.00,Wunderground v.1.15,2013-06-05 15:00:00,
2013-06-05 08:05:00,54.3,52.6,30.10,NNW,336,3.0,6.0,94,0.00,,,0.00,Wunderground v.1.15,2013-06-05 15:05:00,
2013-06-05 08:10:00,54.6,52.9,30.11,NW,314,4.0,4.0,94,0.00,,,0.00,Wunderground v.1.15,2013-06-05 15:10:00,
2013-06-05 08:15:00,54.8,52.8,30.11,NW,323,6.0,7.0,93,0.00,,,0.00,Wunderground v.1.15,2013-06-05 15:15:00,
2013-06-05 08:20:00,55.1,53.1,30.11,NW,316,5.0,5.0,93,0.00,,,0.00,Wunderground v.1.15,2013-06-05 15:20:00,
2013-06-05 08:25:00,55.1,53.1,30.11,WNW,292,5.0,7.0,93,0.00,,,0.00,Wunderground v.1.15,2013-06-05 15:25:00,
2013-06-05 08:30:00,55.2,53.2,30.11,West,281,5.0,7.0,93,0.00,,,0.00,Wunderground v.1.15,2013-06-05 15:30:00,
2013-06-05 08:35:00,55.3,53.3,30.11,NW,324,5.0,7.0,93,0.00,,,0.00,Wunderground v.1.15,2013-06-05 15:35:00,
2013-06-05 08:40:00,55.5,53.5,30.11,WNW,298,4.0,4.0,93,0.00,,,0.00,Wunderground v.1.15,2013-06-05 15:40:00,
2013-06-05 08:50:00,55.6,53.6,30.11,NW,316,5.0,5.0,93,0.00,,,0.00,Wunderground v.1.15,2013-06-05 15:50:00,
2013-06-05 08:55:00,55.6,53.6,30.11,WNW,294,6.0,7.0,93,0.00,,,0.00,Wunderground v.1.15,2013-06-05 15:55:00,
2013-06-05 09:00:00,55.7,53.7,30.11,West,266,7.0,7.0,93,0.00,,,0.00,Wunderground v.1.15,2013-06-05 16:00:00,
2013-06-05 09:05:00,55.9,53.9,30.12,West,281,6.0,7.0,93,0.00,,,0.00,Wunderground v.1.15,2013-06-05 16:05:00,
2013-06-05 09:10:00,56.0,53.7,30.11,West,281,5.0,5.0,92,0.00,,,0.00,Wunderground v.1.15,2013-06-05 16:10:00,
2013-06-05 09:20:00,56.4,54.1,30.11,West,281,6.0,6.0,92,0.00,,,0.00,Wunderground v.1.15,2013-06-05 16:20:00,
2013-06-05 09:25:00,56.6,54.0,30.11,WNW,298,6.0,6.0,91,0.00,,,0.00,Wunderground v.1.15,2013-06-05 16:25:00,
2013-06-05 09:30:00,56.7,54.4,30.11,NW,319,6.0,6.0,92,0.00,,,0.00,Wunderground v.1.15,2013-06-05 16:30:00,
2013-06-05 09:40:00,56.9,54.3,30.11,NW,306,7.0,7.0,91,0.00,,,0.00,Wunderground v.1.15,2013-06-05 16:40:00,
2013-06-05 09:45:00,57.2,54.6,30.11,WNW,296,6.0,7.0,91,0.00,,,0.00,Wunderground v.1.15,2013-06-05 16:45:00,
2013-06-05 09:50:00,57.8,54.9,30.11,NW,311,5.0,5.0,90,0.00,,,0.00,Wunderground v.1.15,2013-06-05 16:50:00,
2013-06-05 09:55:00,58.5,55.6,30.11,NNW,327,4.0,5.0,90,0.00,,,0.00,Wunderground v.1.15,2013-06-05 16:55:00,
2013-06-05 10:00:00,59.0,55.4,30.11,NW,315,5.0,5.0,88,0.00,,,0.00,Wunderground v.1.15,2013-06-05 17:00:00,
2013-06-05 10:05:00,58.7,54.8,30.11,NW,304,6.0,6.0,87,0.00,,,0.00,Wunderground v.1.15,2013-06-05 17:05:00,
2013-06-05 10:15:00,58.4,54.9,30.11,WNW,288,6.0,8.0,88,0.00,,,0.00,Wunderground v.1.15,2013-06-05 17:15:00,
2013-06-05 10:25:00,58.5,54.6,30.11,WNW,292,6.0,7.0,87,0.00,,,0.00,Wunderground v.1.15,2013-06-05 17:25:00,
2013-06-05 10:30:00,58.9,55.4,30.11,NW,308,6.0,6.0,88,0.00,,,0.00,Wunderground v.1.15,2013-06-05 17:30:00,
2013-06-05 10:35:00,58.9,55.0,30.11,WNW,297,6.0,6.0,87,0.00,,,0.00,Wunderground v.1.15,2013-06-05 17:35:00,
2013-06-05 10:40:00,59.3,55.4,30.11,WNW,291,6.0,9.0,87,0.00,,,0.00,Wunderground v.1.15,2013-06-05 17:40:00,
2013-06-05 10:45:00,59.3,55.1,30.11,WNW,293,6.0,9.0,86,0.00,,,0.00,Wunderground v.1.15,2013-06-05 17:45:00,
2013-06-05 10:50:00,59.6,55.7,30.11,West,279,7.0,7.0,87,0.00,,,0.00,Wunderground v.1.15,2013-06-05 17:50:00,
2013-06-05 10:55:00,59.8,55.6,30.11,NW,304,6.0,7.0,86,0.00,,,0.00,Wunderground v.1.15,2013-06-05 17:55:00,
2013-06-05 11:00:00,60.3,55.8,30.11,NW,304,5.0,5.0,85,0.00,,,0.00,Wunderground v.1.15,2013-06-05 18:00:00,
2013-06-05 11:05:00,60.5,56.0,30.11,WNW,289,5.0,7.0,85,0.00,,,0.00,Wunderground v.1.15,2013-06-05 18:05:00,
2013-06-05 11:10:00,61.4,57.2,30.11,NNW,342,4.0,4.0,86,0.00,,,0.00,Wunderground v.1.15,2013-06-05 18:10:00,
2013-06-05 11:15:00,62.5,57.9,30.11,WNW,290,3.0,6.0,85,0.00,,,0.00,Wunderground v.1.15,2013-06-05 18:15:00,
2013-06-05 11:20:00,62.8,56.9,30.11,WNW,296,5.0,5.0,81,0.00,,,0.00,Wunderground v.1.15,2013-06-05 18:20:00,
2013-06-05 11:25:00,63.0,57.4,30.11,WNW,288,6.0,7.0,82,0.00,,,0.00,Wunderground v.1.15,2013-06-05 18:25:00,
2013-06-05 11:30:00,62.7,56.8,30.11,West,281,6.0,6.0,81,0.00,,,0.00,Wunderground v.1.15,2013-06-05 18:30:00,
2013-06-05 11:40:00,62.8,56.9,30.11,West,280,6.0,6.0,81,0.00,,,0.00,Wunderground v.1.15,2013-06-05 18:40:00,
2013-06-05 11:45:00,62.7,57.1,30.11,WNW,285,5.0,6.0,82,0.00,,,0.00,Wunderground v.1.15,2013-06-05 18:45:00,
2013-06-05 11:50:00,62.8,56.9,30.11,WNW,283,7.0,7.0,81,0.00,,,0.00,Wunderground v.1.15,2013-06-05 18:50:00,
2013-06-05 11:55:00,63.2,57.3,30.11,West,281,6.0,7.0,81,0.00,,,0.00,Wunderground v.1.15,2013-06-05 18:55:00,
2013-06-05 12:00:00,63.6,57.7,30.11,WNW,295,6.0,6.0,81,0.00,,,0.00,Wunderground v.1.15,2013-06-05 19:00:00,
2013-06-05 12:05:00,64.1,57.1,30.11,WNW,296,7.0,10.0,78,0.00,,,0.00,Wunderground v.1.15,2013-06-05 19:05:00,
2013-06-05 12:10:00,64.0,57.4,30.11,West,261,7.0,10.0,79,0.00,,,0.00,Wunderground v.1.15,2013-06-05 19:10:00,
2013-06-05 12:15:00,63.7,57.1,30.10,WNW,284,8.0,10.0,79,0.00,,,0.00,Wunderground v.1.15,2013-06-05 19:15:00,
2013-06-05 12:25:00,63.8,57.2,30.10,West,280,10.0,11.0,79,0.00,,,0.00,Wunderground v.1.15,2013-06-05 19:25:00,
2013-06-05 12:30:00,63.3,57.0,30.10,West,273,11.0,11.0,80,0.00,,,0.00,Wunderground v.1.15,2013-06-05 19:30:00,
2013-06-05 12:40:00,63.8,57.5,30.10,WNW,299,10.0,10.0,80,0.00,,,0.00,Wunderground v.1.15,2013-06-05 19:40:00,
2013-06-05 12:45:00,64.1,57.5,30.10,West,273,10.0,10.0,79,0.00,,,0.00,Wunderground v.1.15,2013-06-05 19:45:00,
2013-06-05 12:50:00,64.0,57.4,30.10,WNW,282,9.0,12.0,79,0.00,,,0.00,Wunderground v.1.15,2013-06-05 19:50:00,
2013-06-05 12:55:00,64.2,57.5,30.10,West,275,10.0,12.0,79,0.00,,,0.00,Wunderground v.1.15,2013-06-05 19:55:00,
2013-06-05 13:00:00,64.1,57.5,30.10,WNW,284,11.0,11.0,79,0.00,,,0.00,Wunderground v.1.15,2013-06-05 20:00:00,
2013-06-05 13:05:00,64.5,57.8,30.10,West,273,11.0,11.0,79,0.00,,,0.00,Wunderground v.1.15,2013-06-05 20:05:00,
2013-06-05 13:15:00,64.8,57.8,30.10,West,273,10.0,10.0,78,0.00,,,0.00,Wunderground v.1.15,2013-06-05 20:15:00,
2013-06-05 13:20:00,64.9,57.9,30.10,West,273,9.0,9.0,78,0.00,,,0.00,Wunderground v.1.15,2013-06-05 20:20:00,
2013-06-05 13:25:00,65.0,58.0,30.10,WNW,291,9.0,9.0,78,0.00,,,0.00,Wunderground v.1.15,2013-06-05 20:25:00,
2013-06-05 13:30:00,65.2,57.8,30.10,WNW,282,9.0,9.0,77,0.00,,,0.00,Wunderground v.1.15,2013-06-05 20:30:00,
2013-06-05 13:35:00,65.1,58.1,30.10,WNW,283,9.0,10.0,78,0.00,,,0.00,Wunderground v.1.15,2013-06-05 20:35:00,
2013-06-05 13:40:00,65.1,57.7,30.10,West,274,10.0,10.0,77,0.00,,,0.00,Wunderground v.1.15,2013-06-05 20:40:00,
2013-06-05 13:45:00,65.3,57.9,30.09,WNW,292,10.0,12.0,77,0.00,,,0.00,Wunderground v.1.15,2013-06-05 20:45:00,
2013-06-05 13:50:00,65.7,57.9,30.09,West,264,10.0,10.0,76,0.00,,,0.00,Wunderground v.1.15,2013-06-05 20:50:00,
2013-06-05 13:55:00,64.9,57.5,30.09,West,281,11.0,13.0,77,0.00,,,0.00,Wunderground v.1.15,2013-06-05 20:55:00,
2013-06-05 14:00:00,64.9,57.9,30.09,West,275,13.0,13.0,78,0.00,,,0.00,Wunderground v.1.15,2013-06-05 21:00:00,
2013-06-05 14:10:00,65.1,57.7,30.09,West,277,13.0,13.0,77,0.00,,,0.00,Wunderground v.1.15,2013-06-05 21:10:00,
2013-06-05 14:15:00,65.4,58.0,30.09,WNW,285,12.0,15.0,77,0.00,,,0.00,Wunderground v.1.15,2013-06-05 21:15:00,
2013-06-05 14:20:00,65.4,58.0,30.09,West,275,11.0,11.0,77,0.00,,,0.00,Wunderground v.1.15,2013-06-05 21:20:00,
2013-06-05 14:25:00,65.3,57.9,30.09,WNW,283,11.0,11.0,77,0.00,,,0.00,Wunderground v.1.15,2013-06-05 21:25:00,
2013-06-05 14:35:00,65.2,57.8,30.09,West,279,11.0,16.0,77,0.00,,,0.00,Wunderground v.1.15,2013-06-05 21:35:00,
2013-06-05 14:40:00,65.4,58.0,30.09,West,276,12.0,17.0,77,0.00,,,0.00,Wunderground v.1.15,2013-06-05 21:40:00,
2013-06-05 14:45:00,65.7,58.3,30.08,West,262,11.0,17.0,77,0.00,,,0.00,Wunderground v.1.15,2013-06-05 21:45:00,
2013-06-05 14:50:00,65.7,58.7,30.08,West,271,10.0,10.0,78,0.00,,,0.00,Wunderground v.1.15,2013-06-05 21:50:00,
2013-06-05 14:55:00,65.7,58.3,30.08,WNW,292,10.0,10.0,77,0.00,,,0.00,Wunderground v.1.15,2013-06-05 21:55:00,
2013-06-05 15:00:00,65.7,57.6,30.08,WNW,284,11.0,11.0,75,0.00,,,0.00,Wunderground v.1.15,2013-06-05 22:00:00,
2013-06-05 15:10:00,65.6,58.2,30.08,West,269,9.0,9.0,77,0.00,,,0.00,Wunderground v.1.15,2013-06-05 22:10:00,
2013-06-05 15:15:00,65.9,58.1,30.08,West,273,9.0,9.0,76,0.00,,,0.00,Wunderground v.1.15,2013-06-05 22:15:00,
2013-06-05 15:20:00,65.8,58.0,30.08,WNW,295,10.0,11.0,76,0.00,,,0.00,Wunderground v.1.15,2013-06-05 22:20:00,
2013-06-05 15:25:00,66.0,58.2,30.08,West,269,10.0,12.0,76,0.00,,,0.00,Wunderground v.1.15,2013-06-05 22:25:00,
2013-06-05 15:30:00,65.9,58.1,30.08,West,261,9.0,9.0,76,0.00,,,0.00,Wunderground v.1.15,2013-06-05 22:30:00,
2013-06-05 15:35:00,65.8,58.4,30.08,WNW,287,9.0,9.0,77,0.00,,,0.00,Wunderground v.1.15,2013-06-05 22:35:00,
2013-06-05 15:40:00,66.0,58.2,30.08,WNW,286,9.0,9.0,76,0.00,,,0.00,Wunderground v.1.15,2013-06-05 22:40:00,
2013-06-05 15:45:00,66.1,58.3,30.07,WNW,294,8.0,9.0,76,0.00,,,0.00,Wunderground v.1.15,2013-06-05 22:45:00,
2013-06-05 15:50:00,65.7,58.7,30.07,NW,308,9.0,9.0,78,0.00,,,0.00,Wunderground v.1.15,2013-06-05 22:50:00,
2013-06-05 15:55:00,66.1,58.7,30.07,West,273,10.0,12.0,77,0.00,,,0.00,Wunderground v.1.15,2013-06-05 22:55:00,
2013-06-05 16:00:00,65.9,58.5,30.07,WNW,294,10.0,10.0,77,0.00,,,0.00,Wunderground v.1.15,2013-06-05 23:00:00,
2013-06-05 16:05:00,65.6,58.6,30.07,WNW,288,11.0,13.0,78,0.00,,,0.00,Wunderground v.1.15,2013-06-05 23:05:00,
2013-06-05 16:10:00,66.0,58.6,30.07,WNW,290,10.0,12.0,77,0.00,,,0.00,Wunderground v.1.15,2013-06-05 23:10:00,
2013-06-05 16:15:00,66.1,58.3,30.07,WNW,300,9.0,12.0,76,0.00,,,0.00,Wunderground v.1.15,2013-06-05 23:15:00,
2013-06-05 16:20:00,65.7,58.3,30.07,West,273,11.0,11.0,77,0.00,,,0.00,Wunderground v.1.15,2013-06-05 23:20:00,
2013-06-05 16:30:00,65.2,58.2,30.07,NW,305,11.0,11.0,78,0.00,,,0.00,Wunderground v.1.15,2013-06-05 23:30:00,
2013-06-05 16:35:00,65.0,57.6,30.07,WNW,291,11.0,11.0,77,0.00,,,0.00,Wunderground v.1.15,2013-06-05 23:35:00,
2013-06-05 16:40:00,64.8,57.4,30.06,WNW,288,10.0,10.0,77,0.00,,,0.00,Wunderground v.1.15,2013-06-05 23:40:00,
2013-06-05 16:45:00,65.0,58.0,30.06,West,279,10.0,10.0,78,0.00,,,0.00,Wunderground v.1.15,2013-06-05 23:45:00,
2013-06-05 16:50:00,65.0,57.6,30.06,WNW,285,10.0,10.0,77,0.00,,,0.00,Wunderground v.1.15,2013-06-05 23:50:00,
2013-06-05 16:55:00,64.8,57.8,30.06,WNW,294,10.0,12.0,78,0.00,,,0.00,Wunderground v.1.15,2013-06-05 23:55:00,
2013-06-05 17:00:00,64.5,57.1,30.06,West,279,10.0,10.0,77,0.00,,,0.00,Wunderground v.1.15,2013-06-06 00:00:00,
2013-06-05 17:10:00,64.5,57.5,30.06,West,271,10.0,10.0,78,0.00,,,0.00,Wunderground v.1.15,2013-06-06 00:10:00,
2013-06-05 17:15:00,64.3,57.6,30.06,WNW,289,11.0,11.0,79,0.00,,,0.00,Wunderground v.1.15,2013-06-06 00:15:00,
2013-06-05 17:25:00,64.1,57.1,30.06,WNW,289,11.0,12.0,78,0.00,,,0.00,Wunderground v.1.15,2013-06-06 00:25:00,
2013-06-05 17:30:00,63.8,57.2,30.06,WNW,285,11.0,11.0,79,0.00,,,0.00,Wunderground v.1.15,2013-06-06 00:30:00,
2013-06-05 17:35:00,63.7,57.1,30.06,NW,308,11.0,11.0,79,0.00,,,0.00,Wunderground v.1.15,2013-06-06 00:35:00,
2013-06-05 17:40:00,63.1,56.5,30.06,WNW,286,12.0,12.0,79,0.00,,,0.00,Wunderground v.1.15,2013-06-06 00:40:00,
2013-06-05 17:45:00,62.9,56.6,30.06,WNW,286,12.0,13.0,80,0.00,,,0.00,Wunderground v.1.15,2013-06-06 00:45:00,
2013-06-05 17:50:00,62.8,56.5,30.06,WNW,289,12.0,13.0,80,0.00,,,0.00,Wunderground v.1.15,2013-06-06 00:50:00,
2013-06-05 17:55:00,62.7,56.4,30.06,WSW,250,12.0,13.0,80,0.00,,,0.00,Wunderground v.1.15,2013-06-06 00:55:00,
2013-06-05 18:00:00,62.4,56.1,30.06,West,280,11.0,17.0,80,0.00,,,0.00,Wunderground v.1.15,2013-06-06 01:00:00,
2013-06-05 18:05:00,62.1,55.9,30.06,WNW,288,12.0,17.0,80,0.00,,,0.00,Wunderground v.1.15,2013-06-06 01:05:00,
2013-06-05 18:10:00,61.8,55.6,30.06,WNW,286,13.0,13.0,80,0.00,,,0.00,Wunderground v.1.15,2013-06-06 01:10:00,
2013-06-05 18:15:00,61.3,55.4,30.06,West,277,13.0,13.0,81,0.00,,,0.00,Wunderground v.1.15,2013-06-06 01:15:00,
2013-06-05 18:20:00,61.1,55.2,30.06,NW,304,14.0,14.0,81,0.00,,,0.00,Wunderground v.1.15,2013-06-06 01:20:00,
2013-06-05 18:25:00,61.0,55.1,30.06,West,277,14.0,14.0,81,0.00,,,0.00,Wunderground v.1.15,2013-06-06 01:25:00,
2013-06-05 18:30:00,60.5,55.0,30.05,WSW,258,14.0,14.0,82,0.00,,,0.00,Wunderground v.1.15,2013-06-06 01:30:00,
2013-06-05 18:35:00,60.3,54.8,30.06,West,275,14.0,14.0,82,0.00,,,0.00,Wunderground v.1.15,2013-06-06 01:35:00,
2013-06-05 18:40:00,60.3,55.4,30.06,NW,321,13.0,13.0,84,0.00,,,0.00,Wunderground v.1.15,2013-06-06 01:40:00,
2013-06-05 18:45:00,60.1,54.9,30.06,West,278,13.0,16.0,83,0.00,,,0.00,Wunderground v.1.15,2013-06-06 01:45:00,
2013-06-05 18:50:00,59.9,54.7,30.05,West,274,14.0,14.0,83,0.00,,,0.00,Wunderground v.1.15,2013-06-06 01:50:00,
2013-06-05 18:55:00,59.6,54.8,30.05,West,279,14.0,16.0,84,0.00,,,0.00,Wunderground v.1.15,2013-06-06 01:55:00,
2013-06-05 19:00:00,59.4,54.6,30.06,West,281,14.0,14.0,84,0.00,,,0.00,Wunderground v.1.15,2013-06-06 02:00:00,
2013-06-05 19:05:00,59.2,54.4,30.06,West,279,14.0,15.0,84,0.00,,,0.00,Wunderground v.1.15,2013-06-06 02:05:00,
2013-06-05 19:10:00,59.0,54.5,30.06,West,273,14.0,14.0,85,0.00,,,0.00,Wunderground v.1.15,2013-06-06 02:10:00,
2013-06-05 19:15:00,58.9,54.4,30.06,West,281,13.0,18.0,85,0.00,,,0.00,Wunderground v.1.15,2013-06-06 02:15:00,
2013-06-05 19:25:00,58.7,54.2,30.06,WNW,288,14.0,14.0,85,0.00,,,0.00,Wunderground v.1.15,2013-06-06 02:25:00,
2013-06-05 19:30:00,58.7,54.2,30.06,WNW,294,14.0,19.0,85,0.00,,,0.00,Wunderground v.1.15,2013-06-06 02:30:00,
2013-06-05 19:35:00,58.6,53.8,30.06,West,280,14.0,19.0,84,0.00,,,0.00,Wunderground v.1.15,2013-06-06 02:35:00,
2013-06-05 19:40:00,58.8,54.3,30.06,West,265,13.0,13.0,85,0.00,,,0.00,Wunderground v.1.15,2013-06-06 02:40:00,
2013-06-05 19:45:00,58.7,54.2,30.06,West,279,12.0,13.0,85,0.00,,,0.00,Wunderground v.1.15,2013-06-06 02:45:00,
2013-06-05 19:50:00,58.7,54.2,30.06,WNW,286,11.0,14.0,85,0.00,,,0.00,Wunderground v.1.15,2013-06-06 02:50:00,
2013-06-05 19:55:00,58.4,53.9,30.06,WNW,289,11.0,14.0,85,0.00,,,0.00,Wunderground v.1.15,2013-06-06 02:55:00,
2013-06-05 20:00:00,58.4,53.9,30.06,WNW,289,12.0,12.0,85,0.00,,,0.00,Wunderground v.1.15,2013-06-06 03:00:00,
2013-06-05 20:05:00,58.1,53.6,30.06,West,277,12.0,16.0,85,0.00,,,0.00,Wunderground v.1.15,2013-06-06 03:05:00,
2013-06-05 20:10:00,57.9,53.7,30.06,West,281,12.0,13.0,86,0.00,,,0.00,Wunderground v.1.15,2013-06-06 03:10:00,
2013-06-05 20:15:00,57.6,53.4,30.06,West,271,12.0,13.0,86,0.00,,,0.00,Wunderground v.1.15,2013-06-06 03:15:00,
2013-06-05 20:20:00,57.3,53.5,30.06,WNW,294,11.0,11.0,87,0.00,,,0.00,Wunderground v.1.15,2013-06-06 03:20:00,
2013-06-05 20:25:00,57.0,53.2,30.06,West,281,11.0,12.0,87,0.00,,,0.00,Wunderground v.1.15,2013-06-06 03:25:00,
2013-06-05 20:30:00,56.8,53.0,30.06,WNW,294,10.0,10.0,87,0.00,,,0.00,Wunderground v.1.15,2013-06-06 03:30:00,
2013-06-05 20:35:00,56.7,52.9,30.06,NNW,334,9.0,10.0,87,0.00,,,0.00,Wunderground v.1.15,2013-06-06 03:35:00,
2013-06-05 20:40:00,56.6,52.8,30.06,WNW,287,10.0,11.0,87,0.00,,,0.00,Wunderground v.1.15,2013-06-06 03:40:00,
2013-06-05 20:45:00,56.5,52.7,30.06,NW,316,9.0,11.0,87,0.00,,,0.00,Wunderground v.1.15,2013-06-06 03:45:00,
2013-06-05 20:50:00,56.3,52.5,30.06,NW,323,7.0,7.0,87,0.00,,,0.00,Wunderground v.1.15,2013-06-06 03:50:00,
2013-06-05 20:55:00,56.2,52.4,30.06,NNW,332,6.0,7.0,87,0.00,,,0.00,Wunderground v.1.15,2013-06-06 03:55:00,
2013-06-05 21:00:00,56.2,52.4,30.06,WNW,289,7.0,10.0,87,0.00,,,0.00,Wunderground v.1.15,2013-06-06 04:00:00,
2013-06-05 21:05:00,56.1,52.3,30.06,WNW,301,8.0,10.0,87,0.00,,,0.00,Wunderground v.1.15,2013-06-06 04:05:00,
2013-06-05 21:10:00,56.3,52.5,30.06,West,276,8.0,9.0,87,0.00,,,0.00,Wunderground v.1.15,2013-06-06 04:10:00,
2013-06-05 21:15:00,56.1,52.3,30.06,WNW,288,7.0,9.0,87,0.00,,,0.00,Wunderground v.1.15,2013-06-06 04:15:00,
2013-06-05 21:20:00,56.0,52.2,30.06,WNW,285,6.0,6.0,87,0.00,,,0.00,Wunderground v.1.15,2013-06-06 04:20:00,
2013-06-05 21:25:00,55.9,52.4,30.06,WNW,290,6.0,6.0,88,0.00,,,0.00,Wunderground v.1.15,2013-06-06 04:25:00,
2013-06-05 21:30:00,55.8,52.0,30.05,NNW,334,5.0,5.0,87,0.00,,,0.00,Wunderground v.1.15,2013-06-06 04:30:00,
2013-06-05 21:35:00,55.6,52.1,30.05,NW,312,4.0,5.0,88,0.00,,,0.00,Wunderground v.1.15,2013-06-06 04:35:00,
2013-06-05 21:40:00,55.5,52.0,30.05,NNW,346,5.0,11.0,88,0.00,,,0.00,Wunderground v.1.15,2013-06-06 04:40:00,
2013-06-05 21:45:00,55.3,51.8,30.05,NNW,328,5.0,11.0,88,0.00,,,0.00,Wunderground v.1.15,2013-06-06 04:45:00,
2013-06-05 21:50:00,55.3,51.8,30.05,NNW,340,4.0,5.0,88,0.00,,,0.00,Wunderground v.1.15,2013-06-06 04:50:00,
2013-06-05 21:55:00,55.1,51.6,30.05,NW,322,4.0,5.0,88,0.00,,,0.00,Wunderground v.1.15,2013-06-06 04:55:00,
2013-06-05 22:00:00,55.2,51.7,30.05,NW,306,4.0,4.0,88,0.00,,,0.00,Wunderground v.1.15,2013-06-06 05:00:00,
2013-06-05 22:05:00,55.2,51.7,30.05,NW,321,5.0,7.0,88,0.00,,,0.00,Wunderground v.1.15,2013-06-06 05:05:00,
2013-06-05 22:10:00,55.1,51.6,30.05,NNW,333,5.0,5.0,88,0.00,,,0.00,Wunderground v.1.15,2013-06-06 05:10:00,
2013-06-05 22:15:00,55.2,51.7,30.06,North,360,6.0,6.0,88,0.00,,,0.00,Wunderground v.1.15,2013-06-06 05:15:00,
2013-06-05 22:20:00,55.0,51.5,30.06,NW,315,6.0,6.0,88,0.00,,,0.00,Wunderground v.1.15,2013-06-06 05:20:00,
2013-06-05 22:25:00,55.2,52.0,30.06,WNW,284,7.0,8.0,89,0.00,,,0.00,Wunderground v.1.15,2013-06-06 05:25:00,
2013-06-05 22:30:00,55.2,51.7,30.06,NNW,333,7.0,7.0,88,0.00,,,0.00,Wunderground v.1.15,2013-06-06 05:30:00,
2013-06-05 22:35:00,54.9,51.1,30.06,NW,316,6.0,8.0,87,0.00,,,0.00,Wunderground v.1.15,2013-06-06 05:35:00,
2013-06-05 22:40:00,54.4,50.9,30.07,North,355,5.0,5.0,88,0.00,,,0.00,Wunderground v.1.15,2013-06-06 05:40:00,
2013-06-05 22:45:00,54.1,50.6,30.07,NNW,340,5.0,8.0,88,0.00,,,0.00,Wunderground v.1.15,2013-06-06 05:45:00,
2013-06-05 22:50:00,54.2,51.0,30.07,WNW,300,6.0,12.0,89,0.00,,,0.00,Wunderground v.1.15,2013-06-06 05:50:00,
2013-06-05 22:55:00,54.4,51.2,30.06,NW,316,7.0,12.0,89,0.00,,,0.00,Wunderground v.1.15,2013-06-06 05:55:00,
2013-06-05 23:00:00,54.3,50.8,30.06,NW,325,5.0,5.0,88,0.00,,,0.00,Wunderground v.1.15,2013-06-06 06:00:00,
2013-06-05 23:05:00,54.1,50.6,30.06,NW,309,5.0,7.0,88,0.00,,,0.00,Wunderground v.1.15,2013-06-06 06:05:00,
2013-06-05 23:10:00,54.2,50.7,30.06,NNW,335,6.0,6.0,88,0.00,,,0.00,Wunderground v.1.15,2013-06-06 06:10:00,
2013-06-05 23:15:00,54.1,50.6,30.05,NW,311,5.0,6.0,88,0.00,,,0.00,Wunderground v.1.15,2013-06-06 06:15:00,
2013-06-05 23:20:00,54.4,50.6,30.06,NW,326,5.0,6.0,87,0.00,,,0.00,Wunderground v.1.15,2013-06-06 06:20:00,
2013-06-05 23:25:00,54.2,50.4,30.06,West,279,4.0,6.0,87,0.00,,,0.00,Wunderground v.1.15,2013-06-06 06:25:00,
2013-06-05 23:30:00,54.1,50.3,30.06,NW,325,4.0,4.0,87,0.00,,,0.00,Wunderground v.1.15,2013-06-06 06:30:00,
2013-06-05 23:35:00,54.3,50.5,30.06,NW,322,5.0,5.0,87,0.00,,,0.00,Wunderground v.1.15,2013-06-06 06:35:00,
2013-06-05 23:40:00,54.6,50.5,30.06,NW,311,5.0,5.0,86,0.00,,,0.00,Wunderground v.1.15,2013-06-06 06:40:00,
2013-06-05 23:45:00,54.7,50.6,30.06,WNW,302,5.0,5.0,86,0.00,,,0.00,Wunderground v.1.15,2013-06-06 06:45:00,
2013-06-05 23:50:00,54.7,50.3,30.06,NNW,344,5.0,5.0,85,0.00,,,0.00,Wunderground v.1.15,2013-06-06 06:50:00,
2013-06-05 23:55:00,54.4,50.0,30.06,WNW,286,5.0,5.0,85,0.00,,,0.00,Wunderground v.1.15,2013-06-06 06:55:00,